When you browse on this site, cookies collect data to enhance your experience and personalize the content and advertising you see.
Visit our Privacy Policy to learn more. By continuing to use the site, you agree to this use of cookies and data.
  • In Czech Republic
  • List of Countries
  • For 7 days
  • Water Temperature
  • Weather Map
  • Weather Widgets
  • user-avatar
    Login

    Hourly Weather Nam Dinh

    Today, 21 February, Friday

    Time Temperature Precipitation Wind Pressure Humidity
    00:00 +21°C° 0 mm 3 mps 767 mmHg 89%
    01:00 +21°C° 0 mm 2 mps 766 mmHg 88%
    02:00 +21°C° 0.1 mm 2 mps 766 mmHg 89%
    03:00 +21°C° 0.1 mm 2 mps 766 mmHg 89%
    04:00 +20°C° 0.1 mm 2 mps 765 mmHg 89%
    05:00 +20°C° 0.1 mm 3 mps 766 mmHg 89%
    06:00 +21°C° 0.1 mm 3 mps 767 mmHg 89%
    07:00 +21°C° 0 mm 3 mps 768 mmHg 88%
    08:00 +21°C° 0 mm 4 mps 769 mmHg 85%
    09:00 +22°C° 0 mm 4 mps 769 mmHg 82%
    10:00 +22°C° 0 mm 5 mps 770 mmHg 79%
    11:00 +23°C° 0 mm 5 mps 769 mmHg 77%
    12:00 +23°C° 0 mm 5 mps 769 mmHg 75%
    13:00 +23°C° 0 mm 5 mps 769 mmHg 74%
    20:00 +21°C° 0 mm 2 mps 769 mmHg 82%
    21:00 +22°C° 0 mm 1 mps 769 mmHg 82%
    22:00 +21°C° 0 mm 1 mps 770 mmHg 81%
    23:00 +21°C° 0 mm 1 mps 769 mmHg 82%

    Tomorrow, 22 February, Saturday

    Time Temperature Precipitation Wind Pressure Humidity
    00:00 +21°C° 0 mm 1 mps 769 mmHg 83%
    01:00 +21°C° 0 mm 1 mps 768 mmHg 84%
    02:00 +20°C° 0 mm 1 mps 768 mmHg 86%
    03:00 +20°C° 0 mm 1 mps 768 mmHg 87%
    04:00 +20°C° 0 mm 1 mps 767 mmHg 89%
    05:00 +19°C° 0 mm 2 mps 768 mmHg 89%
    06:00 +19°C° 0 mm 2 mps 768 mmHg 89%
    07:00 +19°C° 0 mm 2 mps 769 mmHg 90%
    08:00 +20°C° 0 mm 2 mps 769 mmHg 83%
    09:00 +22°C° 0 mm 3 mps 769 mmHg 76%
    10:00 +24°C° 0 mm 3 mps 770 mmHg 69%
    11:00 +25°C° 0.2 mm 4 mps 769 mmHg 67%
    12:00 +25°C° 0.2 mm 4 mps 769 mmHg 65%
    13:00 +26°C° 0.2 mm 4 mps 768 mmHg 62%
    14:00 +26°C° 0 mm 4 mps 767 mmHg 62%
    15:00 +26°C° 0 mm 4 mps 767 mmHg 61%
    16:00 +26°C° 0 mm 4 mps 766 mmHg 60%
    17:00 +25°C° 0 mm 3 mps 766 mmHg 66%
    18:00 +24°C° 0 mm 3 mps 767 mmHg 71%
    19:00 +21°C° 0 mm 2 mps 767 mmHg 77%
    20:00 +22°C° 0 mm 1 mps 767 mmHg 79%
    21:00 +22°C° 0 mm 1 mps 768 mmHg 81%
    22:00 +19°C° 0 mm 0 mps 768 mmHg 82%
    23:00 +19°C° 0 mm 0 mps 768 mmHg 84%

    Day after tomorrow, 23 February, Sunday

    Time Temperature Precipitation Wind Pressure Humidity
    00:00 +19°C° 0 mm 0 mps 767 mmHg 85%
    01:00 +18°C° 0 mm 0 mps 767 mmHg 86%
    02:00 +18°C° 0 mm 0 mps 767 mmHg 86%
    03:00 +20°C° 0 mm 1 mps 766 mmHg 87%
    04:00 +20°C° 0 mm 1 mps 766 mmHg 88%
    05:00 +20°C° 0 mm 1 mps 766 mmHg 87%
    06:00 +20°C° 0 mm 1 mps 767 mmHg 86%
    07:00 +20°C° 0 mm 1 mps 767 mmHg 86%
    08:00 +22°C° 0 mm 1 mps 768 mmHg 77%
    09:00 +23°C° 0 mm 2 mps 768 mmHg 68%
    10:00 +25°C° 0 mm 3 mps 768 mmHg 60%
    11:00 +26°C° 0 mm 3 mps 767 mmHg 57%
    12:00 +26°C° 0 mm 4 mps 766 mmHg 54%
    13:00 +27°C° 0 mm 4 mps 766 mmHg 51%
    14:00 +27°C° 0 mm 4 mps 765 mmHg 54%
    15:00 +26°C° 0 mm 4 mps 765 mmHg 57%
    16:00 +26°C° 0 mm 4 mps 764 mmHg 60%
    17:00 +23°C° 0 mm 4 mps 764 mmHg 66%
    18:00 +22°C° 0 mm 4 mps 764 mmHg 72%
    19:00 +21°C° 0 mm 3 mps 765 mmHg 78%
    20:00 +21°C° 0 mm 3 mps 765 mmHg 80%
    21:00 +20°C° 0 mm 3 mps 765 mmHg 83%
    22:00 +20°C° 0 mm 3 mps 765 mmHg 85%
    23:00 +20°C° 0 mm 2 mps 765 mmHg 87%

    24 February, Monday

    Time Temperature Precipitation Wind Pressure Humidity
    00:00 +20°C° 0 mm 1 mps 765 mmHg 89%
    01:00 +20°C° 0 mm 1 mps 764 mmHg 91%
    02:00 +20°C° 0 mm 1 mps 764 mmHg 92%
    03:00 +18°C° 0 mm 0 mps 763 mmHg 92%
    04:00 +18°C° 0 mm 0 mps 763 mmHg 93%
    05:00 +18°C° 0 mm 0 mps 763 mmHg 92%
    06:00 +18°C° 0 mm 0 mps 763 mmHg 91%
    07:00 +20°C° 0 mm 1 mps 764 mmHg 90%
    08:00 +20°C° 0 mm 0 mps 764 mmHg 81%
    09:00 +22°C° 0 mm 0 mps 764 mmHg 73%
    10:00 +24°C° 0 mm 0 mps 765 mmHg 65%
    11:00 +26°C° 0 mm 1 mps 764 mmHg 62%
    12:00 +27°C° 0 mm 2 mps 763 mmHg 59%
    13:00 +27°C° 0 mm 2 mps 762 mmHg 56%
    14:00 +27°C° 0 mm 3 mps 762 mmHg 54%
    15:00 +27°C° 0 mm 3 mps 761 mmHg 53%
    16:00 +27°C° 0 mm 4 mps 761 mmHg 52%
    17:00 +26°C° 0 mm 4 mps 761 mmHg 59%
    18:00 +25°C° 0 mm 3 mps 761 mmHg 65%
    19:00 +24°C° 0 mm 3 mps 761 mmHg 72%
    20:00 +22°C° 0 mm 3 mps 761 mmHg 75%
    21:00 +23°C° 0 mm 2 mps 762 mmHg 79%
    22:00 +21°C° 0 mm 2 mps 762 mmHg 82%
    23:00 +21°C° 0 mm 2 mps 762 mmHg 83%

    25 February, Tuesday

    Time Temperature Precipitation Wind Pressure Humidity
    00:00 +21°C° 0 mm 2 mps 761 mmHg 85%
    01:00 +21°C° 0 mm 2 mps 761 mmHg 86%
    02:00 +21°C° 0 mm 1 mps 761 mmHg 87%
    03:00 +21°C° 0 mm 1 mps 761 mmHg 88%
    04:00 +21°C° 0 mm 1 mps 761 mmHg 88%
    05:00 +21°C° 0 mm 1 mps 761 mmHg 88%
    06:00 +21°C° 0 mm 1 mps 762 mmHg 88%
    07:00 +21°C° 0 mm 1 mps 762 mmHg 88%
    08:00 +23°C° 0 mm 2 mps 762 mmHg 81%
    09:00 +24°C° 0 mm 2 mps 763 mmHg 75%
    10:00 +25°C° 0 mm 3 mps 763 mmHg 68%
    11:00 +25°C° 0 mm 3 mps 762 mmHg 66%
    12:00 +26°C° 0 mm 3 mps 762 mmHg 65%
    13:00 +26°C° 0 mm 3 mps 761 mmHg 63%
    14:00 +26°C° 0 mm 3 mps 761 mmHg 62%
    15:00 +26°C° 0 mm 3 mps 761 mmHg 61%
    16:00 +27°C° 0 mm 3 mps 760 mmHg 60%
    17:00 +26°C° 0 mm 3 mps 760 mmHg 66%
    18:00 +25°C° 0 mm 2 mps 761 mmHg 71%
    19:00 +23°C° 0 mm 2 mps 761 mmHg 76%
    20:00 +23°C° 0 mm 2 mps 761 mmHg 79%
    21:00 +23°C° 0 mm 2 mps 762 mmHg 81%
    22:00 +21°C° 0 mm 2 mps 762 mmHg 83%
    23:00 +21°C° 0 mm 2 mps 762 mmHg 85%

    26 February, Wednesday

    Time Temperature Precipitation Wind Pressure Humidity
    00:00 +21°C° 0 mm 2 mps 761 mmHg 86%
    01:00 +20°C° 0 mm 2 mps 761 mmHg 88%
    02:00 +21°C° 0 mm 1 mps 761 mmHg 89%
    03:00 +21°C° 0 mm 1 mps 761 mmHg 90%
    04:00 +21°C° 0 mm 1 mps 761 mmHg 91%
    05:00 +21°C° 0 mm 1 mps 761 mmHg 90%
    06:00 +22°C° 0 mm 1 mps 762 mmHg 89%
    07:00 +22°C° 0 mm 1 mps 762 mmHg 87%
    08:00 +23°C° 0 mm 1 mps 762 mmHg 82%
    09:00 +24°C° 0 mm 2 mps 763 mmHg 77%
    10:00 +25°C° 0 mm 2 mps 763 mmHg 72%
    11:00 +26°C° 0 mm 2 mps 763 mmHg 66%
    12:00 +27°C° 0 mm 2 mps 762 mmHg 61%
    13:00 +28°C° 0 mm 2 mps 761 mmHg 55%
    14:00 +29°C° 0 mm 3 mps 761 mmHg 55%
    15:00 +29°C° 0 mm 3 mps 760 mmHg 55%
    16:00 +29°C° 0 mm 4 mps 760 mmHg 55%
    17:00 +27°C° 0 mm 3 mps 760 mmHg 62%
    18:00 +26°C° 0 mm 3 mps 761 mmHg 68%
    19:00 +24°C° 0 mm 3 mps 761 mmHg 75%
    20:00 +24°C° 0 mm 3 mps 761 mmHg 78%
    21:00 +24°C° 0 mm 3 mps 761 mmHg 80%
    22:00 +23°C° 0 mm 2 mps 761 mmHg 83%
    23:00 +23°C° 0 mm 2 mps 761 mmHg 85%
    Show more